Weather in Adamovka

Russia / Orenburg Oblast     51°31′11″N   59°56′08″E
temp.,
°C
wind,
m/s
gust,
m/s
humid.,
%
clouds,
%
prec.,
mm/h
press.,
hPa
HPBL,
m
23 october, sat
sat2323:00+8wsw91856100 0.0 1015630
02:00+7sw917615 0.0 1015534
05:00+6sw817745 0.0 1016491
08:00+7sw816745 0.0 1016469
11:00+10wsw10166183 0.0 1017706
14:00+13wsw91458100 0.0 1018995
17:00+13wsw81362100 0.0 1018907
20:00+11sw71366100 0.0 1020460
24 october, sun
sun2423:00+10sw71378100 0.0 1020474
02:00+9sw61291100 0.0 1020364
05:00+8ssw51190100 0.0 1020303
08:00+8ssw61366100 0.0 1019328
11:00+11ssw91536100 0.0 1017688
14:00+14sw101530100 0.0 10161195
17:00+13sw9143484 0.0 1015763
20:00+10sw71439100 0.0 1016364
25 october, mon
mon2523:00+10wsw5844100 0.0 1016262
02:00+9wsw2373100 0.0 101692
05:00+9nw1191100 0.3 101521
08:00+8e2290100 0.3 101589
11:00+9sse2350100 0.3 1014337
14:00+11ssw4735100 0.0 1012625
17:00+11sw4838100 0.0 1011506
20:00+6nw81087100 0.1 1012549
26 october, tue
tue2623:00+4nnw5795100 1.4 1014735
02:00+4nw6783100 0.4 1015840
05:00+4nnw787298 0.4 1016983
08:00+3nnw6107478 0.0 1018687
11:00+3n89504 0.0 1022957
14:00+4n563361 0.0 10231290
17:00+3nnw4533100 0.0 10241068
20:00+2wnw22425 0.0 102620
27 october, wed
wed2723:00+1w334975 0.0 102852
02:000w345868 0.0 102860
05:000wsw375791 0.0 1028193
08:000wsw5105586 0.0 1028317
11:00+3wsw7114498 0.0 1029635
14:00+5wsw8103970 0.0 1027889
17:00+5wsw7104517 0.0 1027738
20:00+2wsw6125563 0.0 1028355